User: anonymous   Login
Location: Pine Mountain Observatory
(43.7910°N, 120.9377°W)
Time: 21:55:26
(UTC-07:00)
Language:

Meteor 2-19 Rocket - Orbit

View from above orbital plane
View from above orbital plane
View from above satellite
View from above satellite

Ground track
Ground track

The orbit data is extracted from the following two-line orbital elements,

1 20671U 90057B   16274.45922109  .00000007  00000-0 -69337-5 0  9990
2 20671  82.5482 218.5540 0014581 331.5233 158.8831 13.84603389327125
Epoch (UTC): 30 September 2016 11:01:16
Eccentricity: 0.0014581
inclination: 82.5482°
perigee height: 937 km
apogee height: 958 km
right ascension of ascending node: 218.5540°
argument of perigee: 331.5233°
revolutions per day: 13.84603389
mean anomaly at epoch: 158.8831°
orbit number at epoch: 32712

The dashed part of the orbit path shows where the satellite is in the earth's shadow,  

DLR